User: anonymous   Login
Location: Bucharest
(44.4268°N, 26.1025°E)
Time: 13:18:40
(UTC+03:00)
Language:

UWE-3 - Orbit

View from above orbital plane
View from above orbital plane
View from above satellite
View from above satellite

Ground track
Ground track

The orbit data is extracted from the following two-line orbital elements,

1 39446U 13066AG  22175.84904192  .00001503  00000-0  19919-3 0  9997
2 39446  97.6857 139.5923 0070221  65.7159 295.1367 14.79585804461552
Epoch (UTC): 24 June 2022 20:22:37
Eccentricity: 0.0070221
inclination: 97.6857°
perigee height: 581 km
apogee height: 680 km
right ascension of ascending node: 139.5923°
argument of perigee: 65.7159°
revolutions per day: 14.79585804
mean anomaly at epoch: 295.1367°
orbit number at epoch: 46155

The dashed part of the orbit path shows where the satellite is in the earth's shadow,  

DLR